Location: Goll?ig?dem
(16.6773°N, 80.7332°E)
Time: 01:50:28
(UTC+00:00)

Envisat - Pass Details

Date: 28 September 2021
Orbit: 764 x 766 km, 98.2° (Epoch: 17 October)

Event Time Altitude Azimuth Distance (km) Brightness Sun altitude
Rises 22:17:28 0° 47° (NE) 3,221 7.0 -31.8°
Reaches altitude 10° 22:21:53 10° 84° (E) 2,293 6.4 -30.7°
Maximum altitude 22:23:04 11° 97° (E) 2,239 6.2 -30.4°
Drops below altitude 10° 22:24:16 10° 111° (ESE) 2,293 6.2 -30.1°
Sets 22:28:39 0° 148° (SSE) 3,216 6.5 -29.1°
